Overview Statistics Trail Chart Weather Telemetry Raw packets
 

This is the latest recevied weather packets stored in our database for station/object YO8SHU-10. If no packets are shown the sender has not sent any weather packets the latest 10 day(s).

<< 5 6 7 8 9 10 11 >>
Time Temp. Humidity Pressure Rain* Wind** Luminosity Snow
1788327042 18.89° C 100% 1026.5 hPa - - - -
1788325241 18.33° C 100% 1026.5 hPa - - - -
1788323441 17.22° C 100% 1026.2 hPa - - - -
1788321641 17.22° C 100% 1026.1 hPa - - - -
1788319841 17.22° C 100% 1025.9 hPa - - - -
1788318041 17.22° C 100% 1025.5 hPa - - - -
1788316241 17.22° C 100% 1025.2 hPa - - - -
1788314441 16.67° C 100% 1025.3 hPa - - - -
1788312641 17.22° C 100% 1025.3 hPa - - - -
1788310841 17.78° C 100% 1025.3 hPa - - - -
1788309040 17.22° C 100% 1025.3 hPa - - - -
1788307240 17.22° C 100% 1025.2 hPa - - - -
1788305440 17.22° C 100% 1025 hPa - - - -
1788303640 17.22° C 100% 1025.1 hPa - - - -
1788301840 17.78° C 100% 1025 hPa - - - -
1788300040 17.78° C 100% 1024.9 hPa - - - -
1788298240 18.33° C 100% 1025.1 hPa - - - -
1788296440 18.33° C 100% 1024.9 hPa - - - -
1788294640 18.33° C 100% 1024.7 hPa - - - -
1788292840 18.89° C 100% 1024.5 hPa - - - -
1788291039 18.89° C 100% 1024.6 hPa - - - -
1788289239 20° C 100% 1024.6 hPa - - - -
1788287439 20° C 100% 1024.3 hPa - - - -
1788285639 20° C 100% 1024.2 hPa - - - -
1788283839 20.56° C 100% 1023.8 hPa - - - -

* Rain since midnight (hover to see other rain measurements)
** Current wind speed in m/s (hover to see current wind gust speed)